EW9904 Weather Reports


Display with metric or nautical units.
time (UTC)temp
F
wind
direction
speed
MPH
gust
MPH
rain 1hr
in
rain 24hr
in
rain mn
in
humidity
%
barometer
mb
20260508093001 49 338 3.0 10.0 0.00 0.06 0.00 82 1013.2
20260508092500 49 333 3.0 8.0 0.00 0.06 0.00 83 1013.1
20260508092003 49 334 3.0 9.0 0.00 0.06 0.00 83 1013.1
20260508091500 50 334 3.0 9.0 0.00 0.06 0.00 83 1013.0
20260508091000 50 320 4.0 11.0 0.00 0.06 0.00 83 1013.0
20260508090005 50 334 4.0 12.0 0.00 0.06 0.00 83 1012.8
20260508085459 50 327 5.0 12.0 0.00 0.06 0.00 84 1012.8
20260508085002 50 332 4.0 10.0 0.00 0.06 0.00 84 1012.7
20260508084459 50 344 3.0 10.0 0.00 0.06 0.00 86 1012.6
20260508084000 50 308 2.0 8.0 0.00 0.06 0.00 86 1012.5
20260508083459 50 273 2.0 8.0 0.00 0.06 0.00 87 1012.6
20260508083000 50 328 3.0 8.0 0.00 0.06 0.00 87 1012.5
20260508082459 50 300 2.0 6.0 0.00 0.06 0.00 88 1012.4
20260508082000 50 323 2.0 8.0 0.00 0.06 0.00 89 1012.3
20260508081459 50 281 2.0 8.0 0.00 0.06 0.00 89 1012.3
20260508080459 49 327 2.0 8.0 0.00 0.06 0.00 89 1012.1
20260508075459 49 325 2.0 9.0 0.00 0.07 0.00 89 1011.9
20260508075000 49 327 2.0 9.0 0.00 0.07 0.00 89 1011.9
20260508074459 49 315 2.0 5.0 0.00 0.07 0.00 89 1011.7
20260508073459 49 275 2.0 7.0 0.00 0.07 0.00 89 1011.5
20260508073002 49 275 2.0 7.0 0.00 0.07 0.00 89 1011.4
20260508072004 49 195 1.0 4.0 0.00 0.07 0.00 90 1011.3
20260508071500 49 194 2.0 4.0 0.00 0.07 0.00 90 1011.1
20260508071001 49 193 2.0 4.0 0.00 0.07 0.00 90 1011.0
20260508070459 49 193 1.0 3.0 0.00 0.07 0.00 90 1011.0
20260508070000 49 192 1.0 3.0 0.00 0.09 0.00 89 1010.9
20260508065459 49 192 1.0 6.0 0.00 0.09 0.00 89 1010.9
20260508065000 49 355 1.0 3.0 0.00 0.09 0.00 89 1010.9
20260508063959 49 355 2.0 6.0 0.00 0.09 0.00 89 1011.0
20260508063500 49 272 1.0 3.0 0.00 0.09 0.00 89 1011.1
20260508063000 49 270 1.0 3.0 0.00 0.09 0.00 89 1011.1
20260508062000 48 283 1.0 3.0 0.00 0.09 0.00 90 1011.0
20260508061459 48 283 1.0 3.0 0.00 0.09 0.00 90 1011.0
20260508061000 48 284 1.0 2.0 0.00 0.09 0.00 90 1011.0
20260508060459 48 284 1.0 4.0 0.00 0.09 0.00 90 1010.9
20260508055959 48 284 1.0 4.0 0.00 0.09 0.00 90 1011.0
20260508055459 48 255 1.0 2.0 0.00 0.09 0.00 90 1010.9
20260508055000 48 255 1.0 2.0 0.00 0.09 0.00 90 1010.9
20260508053959 48 255 1.0 2.0 0.00 0.09 0.00 90 1010.9
20260508053458 48 255 1.0 2.0 0.00 0.09 0.00 90 1010.8
20260508052959 48 255 1.0 2.0 0.00 0.09 0.00 90 1010.9
20260508052458 48 255 1.0 3.0 0.00 0.09 0.00 91 1010.9
20260508051459 48 255 1.0 3.0 0.00 0.09 0.00 91 1010.9
20260508050959 48 255 1.0 2.0 0.00 0.09 0.00 91 1010.9
20260508050006 48 255 1.0 2.0 0.00 0.09 0.00 91 1011.0
20260508045504 48 255 1.0 2.0 0.00 0.09 0.00 91 1010.9
20260508045004 48 255 1.0 2.0 0.00 0.09 0.00 92 1010.9
20260508044507 48 255 1.0 2.0 0.00 0.09 0.00 92 1010.9
20260508044004 48 256 1.0 3.0 0.00 0.09 0.00 92 1010.9
20260508042504 48 219 1.0 2.0 0.00 0.09 0.00 92 1010.9
20260508042005 48 219 1.0 2.0 0.00 0.09 0.00 92 1010.9
20260508041005 48 219 1.0 2.0 0.00 0.09 0.00 93 1010.8
20260508040504 48 219 1.0 2.0 0.00 0.09 0.00 93 1010.7
20260508040006 48 219 1.0 3.0 0.00 0.09 0.09 93 1010.6
20260508035503 48 219 1.0 3.0 0.00 0.09 0.09 93 1010.6
20260508035005 48 219 0.0 2.0 0.00 0.09 0.09 93 1010.6
20260508034504 48 219 0.0 1.0 0.00 0.09 0.09 93 1010.6
20260508034004 48 219 0.0 1.0 0.00 0.09 0.09 93 1010.5
20260508033503 48 219 0.0 1.0 0.00 0.09 0.09 93 1010.4
20260508033004 48 219 0.0 1.0 0.00 0.09 0.09 93 1010.5
20260508032504 48 219 0.0 1.0 0.00 0.09 0.09 93 1010.4
20260508032004 48 219 0.0 2.0 0.00 0.09 0.09 93 1010.5
20260508031504 48 219 0.0 3.0 0.00 0.09 0.09 93 1010.6
20260508031005 49 219 1.0 4.0 0.00 0.09 0.09 93 1010.6
20260508030503 49 219 1.0 4.0 0.00 0.09 0.09 93 1010.7
20260508030007 49 219 0.0 3.0 0.00 0.09 0.09 93 1010.6
20260508025505 49 219 0.0 1.0 0.00 0.09 0.09 93 1010.6
20260508025004 49 219 0.0 1.0 0.00 0.09 0.09 93 1010.5
20260508024504 49 219 0.0 1.0 0.00 0.09 0.09 93 1010.5
20260508024005 49 219 0.0 1.0 0.00 0.09 0.09 93 1010.6
20260508023005 49 219 0.0 1.0 0.00 0.09 0.09 92 1010.6
20260508022504 49 219 0.0 1.0 0.00 0.09 0.09 92 1010.6
20260508020503 50 219 0.0 2.0 0.00 0.09 0.09 92 1010.4
20260508020008 50 219 0.0 1.0 0.00 0.09 0.09 92 1010.3
20260508015503 50 219 0.0 1.0 0.00 0.09 0.09 91 1010.3
20260508015005 50 219 0.0 2.0 0.00 0.09 0.09 91 1010.4
20260508014504 51 219 1.0 2.0 0.00 0.09 0.09 91 1010.3
20260508014005 51 219 1.0 2.0 0.00 0.09 0.09 91 1010.3
20260508013504 51 219 0.0 2.0 0.00 0.09 0.09 91 1010.3
20260508013005 51 219 1.0 3.0 0.00 0.09 0.09 90 1010.3
20260508012503 51 219 1.0 3.0 0.00 0.09 0.09 90 1010.2
20260508012004 51 219 1.0 3.0 0.00 0.09 0.09 90 1010.2
20260508011504 52 219 0.0 3.0 0.00 0.09 0.09 90 1010.1
20260508011004 52 219 0.0 3.0 0.00 0.09 0.09 90 1010.1
20260508010504 51 219 0.0 3.0 0.00 0.09 0.09 89 1010.1
20260508005503 52 219 0.0 2.0 0.00 0.09 0.09 89 1009.8
20260508005005 52 219 1.0 2.0 0.00 0.09 0.09 89 1009.7
20260508004504 52 219 1.0 3.0 0.00 0.09 0.09 89 1009.6
20260508004004 52 219 0.0 3.0 0.00 0.09 0.09 89 1009.7
20260508003503 52 147 0.0 2.0 0.00 0.09 0.09 89 1009.7
20260508003004 52 147 0.0 1.0 0.00 0.09 0.09 89 1009.6
20260508002503 52 147 0.0 2.0 0.00 0.09 0.09 89 1009.6
20260508001504 53 147 0.0 1.0 0.00 0.09 0.09 89 1009.3
20260508001004 52 147 0.0 1.0 0.00 0.09 0.09 88 1009.3
20260507235501 53 147 0.0 3.0 0.00 0.09 0.09 89 1009.1
20260507235005 53 147 0.0 1.0 0.00 0.09 0.09 88 1009.1
20260507234504 53 147 0.0 1.0 0.00 0.09 0.09 88 1009.2
20260507234004 53 147 0.0 2.0 0.00 0.09 0.09 88 1009.1
20260507232503 53 147 1.0 3.0 0.00 0.09 0.09 88 1009.1
20260507231004 53 147 1.0 3.0 0.01 0.09 0.09 87 1009.1
20260507230503 53 147 2.0 3.0 0.01 0.09 0.09 86 1009.2
20260507230005 53 147 1.0 3.0 0.01 0.09 0.09 87 1009.3
20260507225004 54 246 1.0 3.0 0.01 0.09 0.09 87 1008.9
20260507223503 53 246 1.0 3.0 0.01 0.09 0.09 87 1009.2
20260507223005 54 246 1.0 4.0 0.01 0.09 0.09 87 1009.4
20260507222503 54 250 1.0 4.0 0.01 0.09 0.09 87 1009.5
20260507222004 54 253 1.0 4.0 0.01 0.09 0.09 89 1009.6
20260507221503 53 342 1.0 2.0 0.00 0.08 0.08 89 1009.4
20260507221004 53 342 0.0 1.0 0.00 0.08 0.08 89 1009.0
20260507220504 53 342 0.0 1.0 0.01 0.08 0.08 89 1009.2
20260507220008 52 342 0.0 1.0 0.01 0.08 0.08 88 1009.1
20260507215502 53 342 1.0 2.0 0.02 0.08 0.08 89 1009.0
20260507215003 53 342 1.0 2.0 0.02 0.08 0.08 88 1008.9
20260507214501 53 342 0.0 1.0 0.02 0.08 0.08 88 1009.2
20260507214005 53 342 0.0 2.0 0.02 0.08 0.08 88 1009.5
20260507213502 52 342 1.0 2.0 0.02 0.08 0.08 88 1009.6
20260507212504 53 342 0.0 2.0 0.02 0.08 0.08 88 1009.3
20260507211005 53 342 1.0 3.0 0.03 0.08 0.08 87 1009.2
20260507210504 53 342 1.0 3.0 0.02 0.07 0.07 87 1009.3
20260507205503 54 342 0.0 2.0 0.01 0.06 0.06 87 1009.4
20260507205001 53 342 0.0 0.0 0.01 0.06 0.06 86 1009.2
20260507204502 54 342 0.0 2.0 0.01 0.06 0.06 85 1008.9
20260507204003 54 342 1.0 2.0 0.01 0.06 0.06 85 1009.0
20260507203501 54 342 1.0 3.0 0.01 0.06 0.06 85 1009.4
20260507203003 54 342 1.0 3.0 0.02 0.06 0.06 85 1009.3
20260507202501 55 344 1.0 3.0 0.02 0.06 0.06 85 1009.3
20260507202003 55 344 0.0 2.0 0.02 0.06 0.06 86 1009.0
20260507200501 55 344 1.0 2.0 0.01 0.05 0.05 82 1009.1
20260507200005 56 344 0.0 2.0 0.01 0.05 0.05 81 1009.0
20260507195003 56 344 1.0 2.0 0.02 0.05 0.05 82 1008.9
20260507194502 56 344 1.0 2.0 0.02 0.05 0.05 82 1008.9
20260507194004 56 344 1.0 2.0 0.02 0.05 0.05 83 1008.9
20260507193502 56 344 1.0 2.0 0.02 0.05 0.05 80 1009.0
20260507193003 56 344 1.0 4.0 0.01 0.04 0.04 75 1009.3
20260507192501 57 344 1.0 4.0 0.01 0.04 0.04 76 1009.5
20260507192003 57 343 1.0 2.0 0.01 0.04 0.04 77 1009.5
20260507191503 57 343 1.0 3.0 0.01 0.04 0.04 76 1009.3
20260507190005 57 343 1.0 3.0 0.01 0.04 0.04 78 1009.4
20260507185502 57 343 2.0 3.0 0.00 0.03 0.03 73 1009.5
20260507185002 57 343 2.0 5.0 0.00 0.03 0.03 70 1009.8
20260507184503 57 343 3.0 5.0 0.00 0.03 0.03 70 1009.8
20260507184003 57 343 2.0 5.0 0.00 0.03 0.03 68 1010.2
20260507183501 58 349 2.0 4.0 0.00 0.03 0.03 67 1010.0
20260507183002 58 349 1.0 4.0 0.00 0.03 0.03 68 1010.0
20260507182501 58 350 2.0 4.0 0.00 0.03 0.03 67 1010.2
20260507182005 58 350 2.0 5.0 0.00 0.03 0.03 65 1010.2
20260507180501 59 48 1.0 3.0 0.00 0.03 0.03 65 1009.9
20260507175501 58 48 3.0 5.0 0.00 0.03 0.03 64 1009.9
20260507175001 58 360 2.0 5.0 0.00 0.03 0.03 65 1010.1
20260507174501 59 70 2.0 5.0 0.00 0.03 0.03 66 1010.1
20260507174002 59 34 2.0 5.0 0.00 0.03 0.03 65 1010.0
20260507173500 59 61 2.0 5.0 0.00 0.03 0.03 65 1009.9
20260507173004 60 344 1.0 3.0 0.00 0.03 0.03 67 1010.1
20260507172500 59 344 2.0 5.0 0.00 0.03 0.03 64 1010.3
20260507172001 59 344 2.0 5.0 0.00 0.03 0.03 67 1010.3
20260507171501 59 80 2.0 6.0 0.00 0.03 0.03 67 1010.1
20260507171005 59 339 2.0 5.0 0.00 0.03 0.03 68 1010.5
20260507170501 59 347 2.0 5.0 0.00 0.03 0.03 68 1010.6
20260507170001 59 325 2.0 4.0 0.00 0.03 0.03 71 1010.5
20260507165501 58 324 3.0 9.0 0.00 0.03 0.03 69 1011.0
20260507165002 58 323 3.0 9.0 0.00 0.03 0.03 68 1011.0
20260507164002 59 5 2.0 8.0 0.00 0.03 0.03 72 1010.8
20260507163500 59 5 2.0 8.0 0.00 0.03 0.03 69 1010.8
20260507163001 59 32 2.0 8.0 0.00 0.03 0.03 72 1010.9
20260507162500 58 32 2.0 8.0 0.00 0.03 0.03 71 1011.0
20260507162001 58 80 2.0 5.0 0.00 0.03 0.03 70 1011.0
20260507161500 58 81 2.0 6.0 0.00 0.03 0.03 69 1011.2
20260507161001 59 27 2.0 6.0 0.00 0.03 0.03 71 1011.3
20260507160501 59 51 2.0 6.0 0.00 0.03 0.03 72 1011.4
20260507160001 58 42 2.0 6.0 0.00 0.03 0.03 70 1011.4
20260507155501 59 57 2.0 5.0 0.00 0.03 0.03 68 1011.4
20260507154501 59 329 2.0 6.0 0.00 0.03 0.03 72 1011.6
20260507154002 58 54 2.0 6.0 0.00 0.03 0.03 70 1011.5
20260507153500 59 27 2.0 4.0 0.00 0.03 0.03 72 1011.5
20260507153001 59 17 2.0 5.0 0.00 0.03 0.03 70 1011.7
20260507152501 58 17 4.0 10.0 0.00 0.03 0.03 70 1011.7
20260507152001 58 34 4.0 10.0 0.00 0.03 0.03 69 1011.8
20260507151500 59 15 3.0 8.0 0.00 0.03 0.03 74 1011.5
20260507150500 59 71 3.0 5.0 0.00 0.03 0.03 75 1011.5
20260507150002 58 29 3.0 8.0 0.00 0.03 0.03 73 1011.6
20260507145502 59 30 3.0 6.0 0.00 0.03 0.03 75 1011.6
20260507144501 58 93 3.0 5.0 0.00 0.03 0.03 73 1011.8
20260507144001 58 59 3.0 5.0 0.00 0.03 0.03 74 1011.8
20260507143002 57 63 3.0 9.0 0.00 0.03 0.03 72 1011.8
20260507142501 57 19 3.0 9.0 0.00 0.03 0.03 72 1011.7
20260507142001 57 51 3.0 9.0 0.00 0.03 0.03 73 1011.8
20260507141003 57 5 4.0 9.0 0.00 0.03 0.03 74 1012.0
20260507140006 57 11 2.0 6.0 0.00 0.03 0.03 75 1011.9
20260507135500 57 10 2.0 7.0 0.00 0.03 0.03 76 1012.0
20260507135001 57 5 3.0 7.0 0.00 0.03 0.03 73 1011.7
20260507134500 57 29 3.0 6.0 0.00 0.03 0.03 75 1011.8
20260507134001 57 45 3.0 6.0 0.00 0.03 0.03 74 1011.9
20260507133500 57 61 3.0 6.0 0.00 0.03 0.03 75 1011.8
20260507133001 57 32 2.0 6.0 0.00 0.03 0.03 74 1011.9
20260507132501 57 40 2.0 5.0 0.00 0.03 0.03 77 1011.9
20260507132000 56 39 3.0 8.0 0.00 0.03 0.03 74 1011.8
20260507131501 56 345 3.0 8.0 0.00 0.03 0.03 74 1011.8
20260507131001 57 47 3.0 12.0 0.00 0.03 0.03 75 1011.4
20260507130501 56 47 4.0 12.0 0.00 0.03 0.03 74 1011.4
20260507130001 56 321 4.0 9.0 0.00 0.03 0.03 74 1011.7
20260507125500 56 41 3.0 7.0 0.00 0.03 0.03 74 1011.8
20260507124959 56 44 2.0 8.0 0.00 0.03 0.03 74 1011.7
20260507124500 56 360 2.0 5.0 0.00 0.03 0.03 75 1011.7
20260507124000 56 360 3.0 5.0 0.00 0.03 0.03 75 1011.9
20260507123500 56 360 2.0 6.0 0.00 0.03 0.03 75 1011.7
20260507123000 56 21 2.0 5.0 0.00 0.03 0.03 76 1011.7
20260507122001 55 321 2.0 4.0 0.00 0.03 0.03 76 1011.7
20260507121459 56 140 2.0 4.0 0.00 0.03 0.03 77 1011.6
20260507121007 55 140 2.0 4.0 0.00 0.03 0.03 77 1011.7
20260507120500 55 22 2.0 4.0 0.00 0.03 0.03 76 1011.8
20260507120008 55 22 2.0 4.0 0.00 0.03 0.03 77 1011.7
20260507115001 55 72 3.0 9.0 0.00 0.03 0.03 75 1012.1
20260507114501 55 5 3.0 7.0 0.00 0.03 0.03 76 1011.9
20260507114001 55 67 3.0 11.0 0.00 0.03 0.03 76 1011.7
20260507113502 55 41 3.0 11.0 0.00 0.03 0.03 76 1011.7
20260507113002 55 41 3.0 8.0 0.00 0.03 0.03 77 1011.5
20260507112500 55 36 3.0 8.0 0.00 0.03 0.03 79 1011.4
20260507112001 55 347 2.0 7.0 0.00 0.03 0.03 81 1011.5
20260507111459 55 42 2.0 5.0 0.00 0.03 0.03 82 1011.2
20260507111002 55 51 2.0 6.0 0.00 0.03 0.03 82 1011.2
20260507110500 55 29 2.0 6.0 0.00 0.03 0.03 82 1011.0
20260507110004 55 340 3.0 9.0 0.00 0.03 0.03 82 1011.2
20260507105500 55 317 3.0 9.0 0.00 0.03 0.03 82 1011.3
20260507104500 55 44 2.0 5.0 0.00 0.03 0.03 80 1011.3
20260507104000 55 48 2.0 6.0 0.00 0.03 0.03 80 1011.3
20260507103459 55 47 2.0 6.0 0.00 0.03 0.03 79 1011.1
20260507103001 55 5 3.0 8.0 0.00 0.03 0.03 79 1011.1
20260507102500 55 67 3.0 8.0 0.00 0.03 0.03 79 1011.1
20260507101959 55 26 2.0 10.0 0.00 0.03 0.03 80 1011.0
20260507101459 55 53 2.0 5.0 0.00 0.03 0.03 81 1011.0
20260507101001 55 54 3.0 8.0 0.00 0.03 0.03 81 1010.7
20260507100500 55 360 3.0 8.0 0.00 0.03 0.03 81 1010.8
20260507100000 55 32 3.0 10.0 0.00 0.03 0.03 82 1010.9
20260507095001 55 29 4.0 11.0 0.00 0.03 0.03 82 1011.1
20260507094459 55 342 4.0 11.0 0.00 0.03 0.03 82 1010.9
20260507094000 55 5 4.0 10.0 0.00 0.03 0.03 83 1011.0
20260507093459 55 341 4.0 12.0 0.00 0.03 0.03 82 1010.8